Location: ??????
(42.0089°N, 44.3281°E)
Time: 10:34:17
(UTC+00:00)

Cosmos 2251 Rocket - Pass Details

Date: 04 June 2022
Orbit: 764 x 791 km, 74.0° (Epoch: 01 July)

Event Time Altitude Azimuth Distance (km) Brightness Sun altitude
Rises 22:02:11 0° 339° (NNW) 3,256 7.6 -24.0°
Reaches altitude 10° 22:04:33 10° 339° (NNW) 2,328 6.7 -23.8°
Maximum altitude 22:09:52 86° 251° (WSW) 786 3.4 -23.5°
Enters shadow 22:10:56 58° 168° (SSE) 902 3.5 -23.5°
